Flag for U.S.A. Weather past 2 weeks in Kalispell, Montana, U.S.A.

Now
94 °F

Sunny.


Feels Like: 90 °F
Forecast: 58 / 95 °F
Wind: 7 mph from Southeast

Location: Kalispell - Glacier Park International

Current Time: Jul 4, 2015 at 3:42:48 PM

Latest Report: Jul 4, 2015 at 2:55 PM


Visibility: 10 mi

Pressure: 29.67 "Hg (26.84 "Hg at 902m altitude)

Humidity: 15%

Dew point: 39 °F

Location of KalispellLocation

Historic Weather in Kalispell — Graph

°F

Kalispell temperature yesterday

Maximum temperature yesterday: 97 °F (at 5:55 PM)
Minimum temperature yesterday: 53 °F (at 5:55 AM)
Average temperature yesterday: 77 °F

Past Weeks' High & Low Weather Summary

 TemperatureHumidityPressure
High101 °F (Jun 28, 4:55 PM)93% (Jun 20, 5:55 AM)30.12 "Hg (Jun 20, 5:55 AM)
Low38 °F (Jun 21, 5:55 AM)10% (Jul 3, 5:55 PM)29.70 "Hg (Jul 3, 7:55 PM)
Average72 °F45%29.94 "Hg
* Reported Jun 19 1:55 PM — Jul 4 1:55 PM, Kalispell, Weather by CustomWeather, © 2015

Note: Actual official high and low records may vary slightly from our data, if they occured in-between our weather recording intervals... More about our weather records

Advertising

Kalispell weather history for previous 24 hours

 ConditionsComfort  
Time TempWeatherWind HumidityBarometerVisibility
1:55 PM
Sat, Jul 4
92 °FSunny.6 mph17%29.70 "Hg10 mi
12:55 PM91 °FSunny.5 mph17%29.72 "Hg10 mi
11:55 AM87 °FSunny.No wind23%29.74 "Hg10 mi
10:55 AM84 °FSunny.3 mph31%29.75 "Hg10 mi
9:55 AM79 °FSunny.7 mph34%29.76 "Hg10 mi
8:55 AM75 °FSunny.6 mph40%29.76 "Hg10 mi
7:55 AM68 °FSunny.3 mph59%29.76 "Hg10 mi
6:55 AM58 °FSunny.No wind75%29.76 "Hg10 mi
5:55 AM52 °FClear.No wind83%29.76 "Hg10 mi
4:55 AM55 °FClear.No wind77%29.75 "Hg10 mi
3:55 AM56 °FClear.No wind72%29.75 "Hg10 mi
2:55 AM56 °FClear.3 mph72%29.75 "Hg10 mi
1:55 AM59 °FClear.3 mph64%29.75 "Hg10 mi
12:55 AM61 °FClear.No wind62%29.75 "Hg10 mi
11:55 PM
Fri, Jul 3
65 °FClear.No wind54%29.75 "Hg10 mi
10:55 PM76 °FClear.No wind33%29.73 "Hg10 mi
9:55 PM78 °FSunny.6 mph30%29.72 "Hg10 mi
8:55 PM86 °FSunny.3 mph27%29.71 "Hg10 mi
7:55 PM94 °FSunny.6 mph15%29.70 "Hg10 mi
6:55 PM97 °FSunny.6 mph12%29.72 "Hg10 mi
5:55 PM97 °FSunny.8 mph10%29.74 "Hg10 mi
4:55 PM95 °FSunny.9 mph16%29.76 "Hg10 mi
3:55 PM93 °FSunny.N/A18%29.78 "Hg10 mi
Weather by CustomWeather, © 2015

See weather overviewHow to use our weather pages